Theta_e
308 310 313 316 319 323 325 326 326 326 326 325 325 324 322 320 316 314 314 317 318 322 324 322 326 329 329 328 329 330 330 329 328 329 328 328 330 321 316 316 319 319 317 317 317 315 315 314 314 318 320 320 320 319 318 317 316 315 316 319 321 321 318 315 315 320 322 324 323 320 319 319 320 318
304 305 307 310 313 317 321 323 325 325 325 325 325 325 325 324 319 317 314 315 320 321 325 324 324 328 329 329 328 329 329 326 327 329 328 328 329 320 315 315 314 315 316 315 313 312 313 316 317 321 321 319 318 316 315 315 314 314 317 320 321 319 318 315 316 320 322 322 321 319 319 318 316 317
302 302 303 305 307 309 312 315 319 324 325 325 325 325 325 324 322 320 319 314 320 324 322 325 328 328 328 329 328 328 329 327 327 329 328 329 324 321 318 315 314 314 314 313 314 314 312 312 314 316 319 319 318 316 317 316 315 317 319 317 317 319 318 316 317 322 323 323 322 321 319 318 317 318
301 301 301 303 304 306 308 309 313 317 322 324 324 324 323 323 323 322 320 317 317 324 323 324 326 328 328 328 328 327 328 328 322 328 328 328 323 324 324 315 314 315 314 313 314 317 313 311 313 315 317 317 317 317 317 317 317 317 315 313 314 316 316 316 317 322 323 323 322 322 318 318 317 316
301 301 301 302 304 306 306 308 310 313 316 320 322 323 323 322 323 322 320 318 318 322 324 323 324 327 328 326 328 326 327 327 327 324 328 328 327 326 326 323 314 313 313 311 311 311 311 310 315 316 317 318 317 317 315 315 315 313 311 311 311 311 315 316 315 319 321 321 321 319 316 316 315 314
300 301 301 302 303 305 306 307 309 312 314 315 316 318 321 321 322 325 321 320 319 319 323 323 325 325 327 324 328 325 325 325 326 325 326 327 327 326 326 325 321 312 312 311 310 311 310 309 311 312 311 311 312 312 310 310 309 312 310 306 306 312 313 316 314 315 319 319 318 317 315 314 313 313
300 300 301 302 303 305 305 307 308 308 308 308 307 309 312 315 319 323 324 321 318 319 320 324 323 323 325 324 325 326 326 326 325 324 325 326 326 326 326 326 325 312 311 309 310 309 309 309 308 309 309 309 309 309 309 308 308 308 308 305 306 307 308 309 311 312 316 318 318 315 314 313 312 314
299 299 299 300 301 302 303 304 304 304 303 303 304 304 305 307 310 317 323 323 321 321 319 322 323 323 323 324 327 327 327 326 325 325 325 326 326 326 326 326 325 317 310 310 309 310 310 308 307 307 308 308 308 308 307 308 307 307 307 306 306 306 305 305 306 307 311 315 315 313 312 312 314 315
297 298 298 299 299 300 301 302 301 301 300 301 301 301 302 303 305 308 314 320 322 320 319 320 323 324 324 325 325 326 324 324 325 325 324 324 325 325 325 325 325 318 310 310 309 309 308 308 307 307 307 307 307 307 307 307 307 307 307 306 306 305 305 304 304 305 307 308 309 314 313 312 316 317
297 297 297 298 298 299 300 300 299 299 298 299 298 298 298 300 301 302 305 311 318 320 320 320 320 323 321 321 323 325 324 323 322 322 323 324 325 324 323 324 324 322 317 315 315 311 309 308 307 307 307 307 306 306 306 307 307 307 307 306 305 305 305 304 304 303 305 307 307 310 312 312 315 318
296 297 297 297 297 298 299 299 298 297 297 297 296 297 296 297 297 298 300 305 309 315 318 320 321 321 322 321 320 324 325 324 323 320 318 319 323 323 322 321 322 321 318 314 311 312 313 312 311 307 306 306 307 306 306 307 307 307 306 305 304 304 304 304 304 304 304 306 306 306 306 309 313 319
296 296 296 296 296 297 299 298 298 297 296 295 295 295 295 295 295 296 297 299 304 309 315 318 319 320 320 320 322 323 323 321 321 321 320 317 319 319 320 321 318 319 318 317 316 312 311 311 310 306 306 307 307 307 307 307 308 307 306 304 303 304 304 304 304 304 304 305 304 304 304 304 307 314
295 296 296 295 296 299 300 299 298 297 297 295 293 294 294 294 294 294 295 297 299 305 310 315 319 319 319 320 319 318 318 318 318 320 321 320 320 319 316 319 320 319 316 316 316 315 315 315 316 314 312 312 309 309 308 310 308 307 305 304 303 304 304 304 304 304 304 304 304 304 304 303 304 305
295 295 295 296 298 298 298 297 296 295 294 295 294 293 293 293 293 293 293 294 297 300 305 310 315 317 317 318 319 318 319 321 321 319 318 317 319 317 315 316 318 320 317 315 313 314 316 315 314 313 313 314 313 314 311 314 311 308 304 304 304 303 303 303 304 304 304 303 304 303 303 302 302 301
293 294 294 294 297 297 297 296 295 294 293 293 293 293 294 295 293 293 293 294 296 298 301 307 312 315 316 318 320 320 320 320 319 318 318 317 316 314 312 310 312 317 317 315 313 313 315 315 312 312 313 313 314 315 314 308 307 306 304 304 304 303 303 303 303 303 303 303 303 302 302 302 302 299
293 293 293 294 295 295 296 295 294 293 293 292 292 292 292 293 293 293 294 294 295 298 299 303 308 313 316 318 319 319 319 318 318 318 317 316 315 313 312 312 310 313 317 313 312 312 314 314 313 311 312 314 314 314 311 305 305 305 304 303 303 303 303 302 303 302 302 302 302 301 301 301 300 297
292 292 292 293 294 294 297 296 293 292 292 293 293 293 293 294 294 292 292 293 297 299 298 300 303 308 314 317 319 320 320 319 317 317 315 315 315 315 313 313 314 311 316 313 311 310 312 312 311 312 313 314 314 313 307 305 304 304 304 303 303 302 302 302 302 302 301 301 301 300 300 299 298 297
292 292 292 292 292 293 293 293 293 292 291 291 292 292 293 293 294 294 294 294 294 297 301 302 303 308 313 314 319 321 320 318 315 315 314 315 315 315 315 316 315 312 315 313 311 309 310 311 311 311 313 314 314 314 310 304 304 304 303 303 302 302 302 302 301 301 301 300 300 300 299 298 297 296
292 291 292 292 292 292 292 293 292 291 291 291 291 291 292 293 293 294 295 296 297 298 299 300 303 307 311 314 318 321 321 321 319 318 317 316 316 317 317 315 315 312 314 315 313 308 310 311 310 310 312 312 312 314 307 303 303 303 303 302 302 302 301 301 301 301 300 300 300 299 298 296 296 295
292 292 292 292 292 291 291 293 291 291 291 291 291 291 291 292 293 294 296 295 295 296 297 299 300 302 306 308 315 317 321 321 321 319 318 318 317 315 313 312 311 309 312 315 312 310 309 310 309 309 311 310 310 311 313 304 303 303 303 302 302 301 301 301 300 300 300 299 299 298 297 296 295 294
291 292 293 293 292 291 291 292 289 290 291 290 290 290 290 291 291 292 294 294 294 294 294 293 293 294 294 296 299 301 301 309 317 319 315 313 314 312 310 310 309 309 309 312 313 312 307 308 309 307 307 308 307 309 310 310 303 302 302 302 301 301 301 301 300 300 299 298 298 297 296 295 295 294
291 292 295 295 292 291 291 290 289 290 291 290 290 290 290 289 289 290 293 294 295 295 296 295 294 294 295 296 297 298 299 299 303 318 313 315 314 311 310 309 309 310 308 309 313 309 307 307 308 303 301 301 302 306 308 309 308 302 302 301 301 301 301 300 300 300 299 299 298 297 296 295 295 298
291 291 292 294 292 292 291 289 290 289 291 290 290 290 289 288 288 290 291 292 294 298 301 302 303 302 303 305 304 306 300 299 302 311 317 317 313 311 310 310 309 306 306 309 312 308 306 304 305 303 300 299 299 300 302 305 308 307 308 306 304 301 300 300 300 300 299 298 297 296 295 295 297 300
290 290 290 291 290 289 289 289 289 289 290 290 290 290 289 288 288 291 291 295 296 297 298 300 302 303 305 307 311 312 312 310 309 309 314 317 315 313 312 310 309 308 309 308 311 309 306 306 303 304 305 301 296 297 298 301 304 306 307 306 305 300 300 300 299 298 298 297 296 295 295 296 297 299
289 289 289 290 291 289 289 289 289 290 290 290 291 290 289 289 290 291 293 294 296 297 297 298 298 299 299 300 301 301 303 306 309 310 310 316 317 315 312 311 310 310 311 308 306 311 304 304 303 303 302 301 298 295 297 298 300 303 305 305 304 302 302 303 301 301 297 296 295 295 295 296 297 299
289 289 289 290 291 289 289 289 289 289 290 290 291 290 289 289 289 291 293 293 294 295 295 296 295 296 296 297 297 298 299 301 301 302 307 312 316 316 316 314 311 309 310 307 303 311 305 303 304 302 301 297 296 296 294 295 297 300 303 305 304 302 303 302 301 301 300 299 297 296 297 296 297 297
289 290 290 291 291 289 289 289 289 290 289 290 290 289 289 289 289 291 292 292 292 292 293 293 293 293 294 294 295 296 297 298 300 301 303 304 308 311 314 315 316 314 312 307 309 311 307 305 304 303 301 300 295 295 295 293 294 298 298 299 300 301 301 300 298 298 298 297 298 295 295 294 294 294
290 289 290 290 289 289 289 289 289 289 289 289 289 289 289 289 290 291 290 290 290 290 290 291 291 292 293 294 294 294 296 297 298 300 301 302 303 305 310 313 311 311 309 308 309 311 309 306 304 305 304 299 296 294 293 295 295 296 295 297 298 298 299 298 297 297 297 297 297 297 296 295 295 295
290 289 289 289 289 289 289 289 289 290 290 289 289 289 289 291 290 290 289 289 289 288 288 289 290 291 292 293 294 295 296 297 298 298 300 301 301 302 304 303 303 306 307 307 309 310 309 307 305 305 303 301 299 298 296 293 294 294 295 294 293 296 297 297 297 296 295 296 296 296 295 295 295 295
289 289 289 289 289 289 289 290 290 290 290 289 289 289 290 290 289 289 289 288 287 287 287 288 289 290 291 292 294 295 295 295 295 296 297 298 297 298 299 301 300 301 302 305 309 310 309 307 305 304 302 301 300 297 296 295 294 295 295 295 294 295 296 296 296 295 295 294 295 295 295 296 296 295
289 289 289 289 288 289 288 289 289 289 290 290 290 290 290 290 289 290 289 289 288 287 287 288 288 290 291 292 292 293 293 293 294 296 295 296 295 296 297 296 295 297 299 300 303 310 308 307 306 304 301 299 298 298 297 297 294 294 295 295 295 291 294 295 295 295 295 295 295 295 295 295 296 296
290 289 288 288 289 289 289 289 288 289 289 289 289 289 289 289 289 290 290 290 289 288 289 288 289 289 290 290 290 291 292 292 292 294 294 294 294 295 295 293 292 294 297 298 300 303 303 306 305 305 303 300 297 297 298 297 295 295 294 295 295 295 295 294 294 295 296 295 294 293 294 295 295 295
289 288 288 287 287 287 286 286 287 287 287 288 289 289 289 289 289 288 288 287 287 288 288 287 287 287 288 288 289 289 290 290 291 292 293 293 293 294 294 292 292 292 293 295 296 298 301 301 300 301 300 300 300 298 297 294 295 296 295 295 294 294 295 295 295 295 296 295 293 293 292 293 294 295
287 286 286 286 286 286 286 285 285 285 286 286 287 287 288 288 288 287 287 287 288 288 288 288 287 287 287 287 287 287 287 289 291 291 290 291 292 291 291 291 291 292 292 293 295 296 297 298 298 298 298 296 297 296 297 296 294 295 295 295 295 294 294 295 295 296 295 294 293 291 291 291 292 294
286 285 285 285 285 285 285 285 285 285 285 285 285 286 287 288 287 287 287 287 287 287 287 287 287 287 287 287 287 287 286 287 289 289 290 290 290 290 289 289 290 290 291 292 292 295 297 297 297 296 296 296 295 296 296 297 296 295 295 295 295 294 294 294 294 294 293 293 292 289 289 290 291 292
286 286 285 285 285 285 285 285 285 285 285 285 285 285 285 286 286 286 286 287 287 287 287 287 287 287 287 287 287 287 287 287 288 288 287 288 288 288 289 288 289 290 291 291 292 293 295 297 296 294 291 291 289 288 289 294 296 296 293 292 293 293 293 293 294 293 293 291 291 290 288 288 289 291
285 285 286 285 286 285 284 285 285 285 285 285 285 285 285 285 286 287 287 287 287 287 287 287 287 287 288 288 288 287 287 287 287 287 287 288 288 288 287 287 287 289 289 290 291 291 293 293 294 293 290 288 286 285 285 291 292 294 293 290 290 292 292 292 291 290 292 292 292 291 290 289 288 290
285 285 285 285 286 286 286 285 285 285 285 285 285 285 286 286 286 286 287 287 286 287 287 286 287 287 287 288 288 288 288 288 288 287 287 287 287 287 287 287 287 287 288 289 290 290 290 290 290 291 290 287 285 285 285 287 289 291 293 292 288 288 289 288 288 287 289 291 290 290 291 288 288 288
285 284 285 285 285 286 286 285 285 285 286 286 285 285 285 285 286 286 285 285 286 286 286 286 286 286 287 287 287 288 288 287 287 287 287 287 287 286 286 287 287 287 287 287 288 288 288 287 287 288 289 288 287 286 287 286 285 289 292 293 291 288 288 288 287 288 288 286 286 287 286 288 288 289
285 285 285 285 285 285 286 286 286 286 286 286 286 286 286 285 285 285 285 285 285 285 286 286 286 287 287 287 287 288 289 288 288 287 287 287 286 286 286 286 286 286 286 286 286 286 287 286 286 287 287 287 287 288 288 288 288 289 290 291 293 292 290 290 288 288 287 289 289 287 286 288 288 289
285 285 285 285 285 285 285 285 286 286 286 286 286 285 285 285 285 285 285 285 284 285 285 285 285 286 286 287 287 287 288 288 288 288 288 287 287 286 286 286 286 286 286 285 286 286 285 287 289 289 290 291 291 292 289 287 285 285 286 288 291 292 292 292 292 290 288 290 289 288 287 287 287 289
285 285 285 285 284 285 285 285 285 285 285 286 285 285 285 285 285 285 285 284 284 284 285 285 285 285 285 286 286 286 286 286 288 288 287 287 287 287 286 286 286 286 286 285 285 285 288 292 290 291 291 290 289 287 285 285 284 285 285 287 288 290 291 291 291 291 292 290 288 287 286 287 288 287
285 285 285 285 284 285 285 284 285 284 284 285 284 284 284 284 284 284 284 284 284 284 284 284 285 285 285 285 286 286 286 286 286 286 287 287 287 287 286 286 286 286 286 286 286 287 287 289 290 289 289 288 287 287 285 285 286 285 285 285 286 287 288 289 289 289 289 289 289 290 290 289 287 285
285 285 285 285 284 284 285 285 284 284 284 284 283 284 283 283 283 283 283 283 283 283 284 284 284 285 285 285 285 285 285 286 286 286 286 287 287 287 287 287 287 287 287 286 286 286 287 287 287 288 287 286 287 287 286 286 285 286 286 286 286 286 286 288 289 289 288 288 288 288 290 290 289 290
285 285 285 285 284 284 285 284 284 284 284 283 283 282 283 283 283 283 283 282 282 282 283 284 284 284 285 285 285 284 284 285 286 286 286 287 287 287 287 288 288 287 287 287 286 286 286 286 287 287 287 286 286 286 286 286 286 286 286 286 286 286 287 288 288 287 287 286 287 287 288 288 289 289
Wind_Speed
10 9 11 10 10 9 8 9 8 9 9 9 10 9 8 10 11 10 10 10 8 7 10 9 8 12 12 11 10 11 11 13 15 11 10 8 9 15 20 21 21 21 22 22 22 21 22 21 17 19 19 19 19 20 18 17 14 15 15 17 17 14 13 15 17 17 17 19 17 13 13 13 12 11
9 10 11 10 10 10 11 10 9 9 9 10 10 10 8 8 11 9 13 12 8 7 6 9 8 8 11 11 10 11 12 16 16 12 12 12 13 17 21 21 22 21 22 22 22 22 23 23 20 19 20 20 20 20 19 18 14 15 15 18 18 15 12 14 18 18 17 16 15 14 13 12 11 12
9 11 11 10 10 11 12 12 12 11 9 9 8 10 10 9 11 12 9 12 6 6 8 7 10 8 10 11 11 10 11 13 16 14 13 14 17 19 18 23 23 22 23 22 22 22 23 23 21 20 20 21 21 20 19 19 15 17 18 17 17 15 13 14 17 19 18 16 15 16 14 13 12 11
9 10 10 11 9 10 10 11 11 12 11 10 10 10 10 11 12 12 11 14 17 9 8 7 7 11 10 11 12 13 11 11 17 12 13 14 18 15 10 21 23 23 23 23 22 23 23 22 22 21 21 21 21 21 21 20 19 19 18 17 16 15 14 13 16 20 19 16 17 18 15 15 12 12
10 10 10 10 11 10 10 10 10 10 12 12 11 10 11 12 12 12 12 13 14 11 6 9 9 9 9 9 12 13 11 10 10 13 13 14 12 10 9 10 21 23 23 23 23 24 24 23 21 21 21 22 22 21 21 21 19 18 18 18 17 16 15 14 16 19 21 17 16 17 16 16 15 13
10 11 13 13 13 11 11 10 10 10 11 12 12 12 11 12 12 11 12 11 11 16 11 8 8 7 9 12 11 13 13 12 9 12 11 11 11 11 10 9 11 22 22 23 24 24 24 23 22 22 22 22 21 21 21 21 21 19 18 18 18 18 17 15 16 18 18 18 16 17 17 16 15 14
12 12 11 12 13 9 10 11 11 12 12 11 11 13 12 14 14 13 12 12 12 13 12 8 8 8 9 12 12 13 13 12 12 13 14 13 10 10 13 12 11 20 22 24 24 24 24 24 23 23 22 22 22 21 21 22 21 20 19 18 18 18 17 16 16 18 19 18 17 18 18 17 16 15
13 13 12 12 13 12 12 12 11 11 12 12 11 12 13 13 15 15 13 11 11 10 12 10 9 8 9 10 11 10 11 12 12 12 12 12 13 11 12 13 12 15 25 25 24 24 24 24 24 23 23 22 22 22 22 21 21 21 20 19 19 19 18 16 16 18 18 17 18 18 18 17 17 17
13 13 12 13 13 12 12 11 11 11 14 12 11 10 10 10 12 13 14 13 11 10 11 11 9 8 9 10 12 12 11 11 11 10 11 12 12 12 13 10 13 18 27 27 26 24 24 24 24 23 23 22 22 22 22 22 22 22 21 20 20 19 18 17 16 18 18 17 17 18 18 18 17 18
12 12 13 13 12 12 11 11 11 13 15 13 12 14 12 11 10 12 13 13 14 14 12 12 12 8 10 9 10 11 13 12 11 11 11 9 11 12 11 11 9 8 8 9 14 18 19 23 24 24 23 23 23 22 22 22 22 22 22 21 20 20 19 18 17 18 18 17 17 17 18 17 17 18
12 12 12 12 12 12 12 11 12 12 14 12 15 14 14 14 12 14 13 12 14 14 14 12 11 11 9 10 10 9 12 14 14 14 11 11 10 10 12 11 9 7 8 12 16 15 16 19 17 22 24 24 23 23 23 22 23 22 22 22 21 21 20 19 18 18 18 17 17 16 16 17 16 17
12 12 12 12 12 13 12 12 12 12 11 12 14 13 13 14 14 13 13 13 11 12 13 12 11 9 10 8 10 8 10 11 11 12 12 14 13 12 10 12 12 9 11 12 9 11 14 14 19 21 22 23 23 23 22 23 22 23 23 22 21 21 20 19 18 18 18 18 17 16 16 16 16 16
12 12 11 11 13 15 18 20 18 17 16 11 12 14 14 15 14 14 13 12 12 12 12 13 11 11 10 9 9 10 10 12 15 11 10 12 11 10 10 11 11 10 12 11 11 12 11 12 12 10 10 13 19 19 22 19 24 24 23 23 22 21 21 20 19 18 18 18 17 16 16 15 15 15
12 12 12 13 19 19 19 20 18 17 19 22 17 13 12 14 15 14 14 13 12 13 14 12 11 10 10 10 10 11 12 13 10 9 13 13 10 8 10 8 9 11 12 11 9 10 10 11 12 12 15 14 15 11 13 12 16 20 23 23 23 22 21 20 19 18 18 18 17 16 15 15 15 15
13 13 13 12 15 16 17 17 19 17 19 21 23 25 23 18 13 14 16 14 12 13 15 13 12 12 11 11 9 11 12 11 12 13 12 12 10 12 13 12 4 7 12 11 11 11 11 11 11 13 14 13 12 12 13 21 22 22 23 23 23 22 22 21 21 20 19 18 17 16 16 15 15 14
12 13 13 12 11 11 16 18 17 20 23 23 23 23 22 22 19 16 14 15 16 14 14 15 14 13 12 11 10 9 9 10 10 12 13 13 12 11 12 11 12 8 13 12 11 12 10 13 12 11 13 15 15 15 18 22 22 23 24 23 24 24 23 23 22 21 19 18 17 16 16 16 15 14
12 12 13 13 12 11 21 18 17 19 21 24 26 25 25 21 20 17 15 16 16 13 18 17 16 14 13 13 11 9 10 8 12 12 12 13 12 13 13 12 9 9 15 11 11 13 11 12 13 14 13 14 9 13 18 22 24 24 24 24 23 23 23 23 22 20 20 19 17 17 16 15 14 14
13 13 13 13 14 14 16 15 18 19 18 19 19 18 16 16 19 20 19 16 16 15 14 17 18 16 13 14 11 10 9 10 10 8 10 10 13 13 15 11 8 8 13 16 12 10 11 13 12 14 12 13 11 10 17 24 24 24 24 24 23 23 23 22 22 21 20 19 18 17 16 15 15 15
13 13 12 14 14 15 16 16 21 20 19 19 17 17 18 17 16 16 16 14 12 12 12 13 15 17 16 16 15 12 9 12 11 11 12 12 13 13 8 6 8 8 14 15 12 15 11 9 12 14 12 11 9 9 15 22 23 24 24 24 23 23 23 22 22 21 20 19 18 17 17 16 15 14
12 13 14 15 16 17 16 20 25 23 19 18 18 17 17 17 16 15 14 18 18 17 16 14 14 15 18 18 15 13 11 10 10 8 8 7 9 9 8 10 7 10 10 13 13 9 7 11 14 12 9 10 12 11 10 18 23 23 23 23 23 23 22 22 21 20 19 18 18 17 17 16 15 14
14 14 16 16 14 15 16 22 24 24 23 17 18 17 17 17 16 16 15 17 20 20 22 23 24 24 24 24 23 19 17 12 9 9 9 12 9 9 11 10 9 10 10 11 13 10 7 10 12 8 8 9 11 11 11 9 19 22 22 23 23 22 22 21 20 19 19 19 18 18 17 16 15 15
10 14 23 20 15 15 16 23 24 24 21 17 16 17 18 18 18 17 16 15 15 20 20 19 19 20 21 20 19 17 14 14 10 9 13 10 7 10 12 12 11 8 11 14 14 10 9 7 8 7 3 4 0 6 8 9 12 19 18 22 21 21 20 20 20 20 20 20 19 18 18 17 17 11
9 10 12 19 18 18 20 24 23 24 21 16 16 17 16 17 17 17 19 18 16 16 17 15 11 8 10 9 9 9 14 15 12 11 12 7 11 13 11 11 6 8 11 10 14 13 7 11 9 10 7 6 1 1 5 9 9 10 10 12 13 18 19 20 20 20 20 19 19 19 20 20 16 8
10 10 10 12 18 23 23 23 24 23 24 17 15 14 13 15 17 16 17 16 16 14 13 12 11 10 9 10 8 5 6 7 9 10 11 9 10 12 12 12 13 14 9 10 16 14 6 10 11 11 12 11 7 5 4 6 8 9 10 9 9 16 18 18 15 19 19 19 20 21 21 21 16 10
9 11 11 10 18 23 23 23 24 23 23 21 16 13 12 14 19 19 12 17 20 13 12 10 9 9 10 9 8 8 8 8 7 5 8 10 9 11 10 10 12 12 6 13 22 14 9 11 12 10 5 0 4 8 5 5 5 7 9 10 11 10 8 8 8 10 15 19 20 21 21 20 19 14
8 11 13 11 17 23 22 22 23 23 22 23 15 18 23 24 24 19 13 13 12 11 11 10 11 12 12 10 10 9 8 7 8 8 7 6 8 8 10 12 14 12 9 10 23 15 10 9 13 14 8 7 3 8 10 4 5 5 7 9 10 11 10 10 9 10 9 10 9 14 15 17 15 16
8 8 9 11 20 22 22 22 22 21 23 17 17 25 24 24 24 18 12 13 13 12 12 12 12 12 12 12 11 10 11 10 9 8 7 7 7 6 7 10 10 11 4 11 18 16 14 12 13 16 15 10 11 6 8 9 6 8 8 8 10 10 10 10 10 11 9 10 9 15 14 13 13 12
9 9 10 13 21 20 21 21 20 20 20 17 23 23 24 23 19 13 13 13 13 12 13 13 13 13 11 12 13 13 10 9 10 8 7 7 6 6 6 6 9 5 6 11 13 14 12 10 12 12 14 15 14 13 8 5 9 12 12 9 8 8 9 11 11 10 10 11 12 11 10 9 8 10
9 13 18 19 19 19 20 20 18 16 19 23 22 22 22 20 12 14 13 13 13 13 13 13 11 12 13 12 11 11 10 10 9 10 9 7 8 7 5 4 1 2 6 9 13 13 11 10 13 10 8 9 11 10 14 13 13 11 11 14 9 8 9 10 11 12 11 11 11 11 10 9 8 10
16 17 17 18 18 16 17 14 13 13 15 19 20 20 19 14 13 13 13 13 12 12 13 12 13 12 11 12 11 11 11 11 12 10 9 8 10 9 8 6 7 7 3 3 10 11 9 8 10 10 9 6 7 11 11 15 11 13 13 12 12 11 8 10 11 11 12 12 11 10 8 8 9 10
9 13 13 12 14 12 16 15 13 13 15 14 15 14 14 13 13 13 13 12 11 11 10 11 11 11 11 10 12 13 12 12 12 11 9 9 10 9 7 8 9 9 8 5 1 8 10 9 10 13 12 8 6 7 11 13 15 13 10 11 15 15 10 11 11 11 11 11 10 10 8 8 6 7
8 8 10 10 9 10 10 10 11 12 12 12 13 14 13 13 13 15 17 13 11 11 10 10 10 11 11 12 12 12 12 12 12 12 11 11 10 9 8 10 10 8 8 8 6 3 4 7 9 9 10 14 14 9 6 11 15 15 14 11 8 12 15 14 12 10 11 12 12 10 8 8 8 6
9 8 8 8 10 10 11 12 12 11 13 13 13 14 14 13 13 13 13 14 13 12 12 12 12 12 11 12 12 12 13 13 13 13 12 13 11 10 10 11 9 10 9 8 8 7 7 7 10 11 11 9 7 12 16 10 7 14 17 13 13 13 9 12 14 14 12 12 11 11 10 7 6 6
7 9 10 10 10 10 9 11 12 12 12 12 13 12 14 14 13 13 12 13 13 13 12 11 12 12 11 12 13 13 13 12 12 13 14 12 11 12 12 11 11 9 9 8 8 7 8 11 11 14 15 14 13 12 6 12 14 10 13 15 15 14 12 11 11 12 11 11 13 12 10 8 7 5
8 8 8 9 10 10 9 10 8 10 11 12 12 12 12 12 14 14 12 12 12 13 12 13 12 11 12 12 12 12 12 11 12 12 12 12 12 12 11 11 11 11 10 11 9 6 5 10 13 12 12 13 13 13 22 13 12 15 12 11 11 17 14 11 12 12 13 11 10 12 9 8 7 5
9 8 7 7 7 8 8 8 8 8 8 9 9 9 10 12 12 12 12 12 11 12 12 12 12 12 12 11 11 11 11 10 11 12 12 12 12 11 11 11 10 11 11 12 11 9 5 6 9 12 12 10 13 12 8 21 18 10 19 12 12 14 15 14 13 12 11 11 10 11 10 8 6 6
7 8 9 8 8 8 7 8 8 8 8 8 8 8 9 9 10 12 13 13 12 11 12 11 11 11 12 11 11 11 11 11 11 12 12 11 11 11 11 11 11 11 12 12 11 12 10 9 7 11 13 12 15 15 12 8 21 20 14 19 12 12 14 13 12 11 10 10 9 8 9 8 8 7
7 7 7 7 7 8 8 7 8 8 8 7 7 8 9 10 10 11 12 12 12 11 11 11 11 11 11 10 11 11 11 11 11 12 12 11 11 11 11 10 11 11 11 12 12 12 12 12 11 7 12 15 14 16 18 10 10 12 15 15 17 12 10 12 11 9 9 7 8 7 7 8 7 6
6 7 7 7 8 8 8 8 7 8 9 8 8 8 8 9 10 11 11 11 11 11 11 12 12 11 11 11 10 10 12 12 13 12 12 12 12 11 11 11 12 11 12 13 13 13 13 13 12 10 10 11 13 10 12 15 13 9 12 17 15 13 10 10 10 10 10 9 8 9 9 8 9 12
7 6 6 7 7 7 7 7 8 8 8 8 8 8 8 8 9 9 11 10 10 11 11 11 12 11 10 10 10 10 10 12 12 11 11 11 11 11 11 10 11 11 13 14 14 13 14 14 12 10 12 12 11 11 12 13 11 11 11 10 12 13 12 10 11 11 10 9 10 11 8 6 5 2
6 7 6 6 6 7 7 7 7 8 8 8 8 9 9 8 8 7 7 8 9 8 8 9 11 11 10 10 9 9 12 12 10 11 11 11 12 12 13 12 12 11 13 14 14 15 13 10 12 16 15 12 12 12 13 14 14 11 10 10 14 14 12 11 11 11 9 9 9 9 7 6 6 6
6 6 6 6 6 6 6 7 7 7 8 8 8 8 8 7 7 11 10 12 12 12 10 8 9 8 8 8 8 8 7 9 12 12 10 10 11 11 13 12 10 10 12 12 12 11 9 9 9 9 8 8 9 12 13 12 11 10 9 9 9 13 17 17 15 13 10 10 11 9 6 6 6 6
6 6 7 6 6 6 6 7 7 7 7 8 8 8 7 8 7 9 8 9 8 8 8 8 8 8 8 8 7 7 8 8 7 7 8 11 10 10 10 10 9 10 10 10 9 9 9 9 9 9 9 10 8 11 11 8 8 8 8 10 10 9 10 15 17 17 16 14 10 4 6 8 8 5
5 6 6 6 6 6 6 6 6 6 7 6 6 6 7 7 8 8 7 8 8 8 8 8 8 8 8 8 7 7 8 7 7 8 7 7 8 8 8 8 9 9 8 8 8 8 8 8 9 8 9 9 7 10 11 10 8 9 8 8 8 9 9 8 8 11 12 15 14 8 7 3 1 7
5 5 5 6 6 6 5 6 6 6 6 6 6 7 6 7 7 7 7 7 7 8 8 7 8 8 8 8 8 9 8 9 8 6 6 6 6 5 5 5 7 8 8 7 8 8 7 8 8 8 9 9 8 9 8 9 9 8 8 9 10 7 6 7 8 7 6 6 12 10 6 10 15 16
Wind_Direction
332 327 326 319 313 307 300 288 276 272 266 266 265 263 270 278 280 284 277 269 259 232 202 231 220 206 219 217 214 213 211 216 212 207 199 188 218 206 204 204 202 196 197 198 199 200 202 203 198 194 188 181 179 180 184 197 199 191 193 195 205 208 190 187 180 187 193 192 184 182 184 184 185 158
335 333 329 326 318 321 316 311 301 287 279 270 260 256 251 252 259 265 273 280 255 260 203 213 234 205 216 215 216 212 212 214 205 203 197 197 208 201 202 203 202 198 196 197 198 199 200 201 197 195 188 182 179 179 181 193 199 194 194 197 204 204 193 185 180 187 195 192 178 180 184 182 165 159
339 337 333 332 326 326 321 317 313 304 297 289 277 272 263 255 256 259 262 271 249 212 256 224 227 218 206 213 219 224 220 212 201 201 200 203 207 199 198 201 201 198 196 195 196 197 199 199 197 196 188 182 180 179 181 190 199 200 197 200 202 203 194 185 181 187 195 193 181 181 182 175 172 166
334 331 331 328 324 323 321 318 315 310 303 297 293 285 281 273 264 258 253 253 273 250 245 254 229 223 225 213 215 219 223 217 197 198 201 207 207 198 195 202 201 199 195 195 196 196 196 197 196 195 190 185 182 182 184 188 198 201 196 198 202 204 198 191 186 189 195 197 189 185 181 180 176 174
338 331 323 320 317 316 316 317 314 311 310 307 298 292 286 282 275 263 257 251 264 271 212 240 242 226 219 228 216 220 219 216 204 202 207 206 204 205 203 197 202 200 196 195 195 195 194 195 195 194 190 187 185 184 184 187 193 198 195 195 200 204 202 197 192 192 196 198 192 183 181 181 179 178
337 333 332 324 322 318 310 310 315 317 320 324 324 316 306 294 287 267 259 257 250 264 263 234 235 235 207 230 211 220 218 216 200 203 208 207 199 196 195 198 203 204 200 196 195 195 193 193 194 192 190 187 185 184 184 186 189 197 195 193 196 202 206 202 196 194 195 194 189 182 180 180 180 177
340 337 334 333 334 324 318 327 338 338 336 333 328 323 321 317 307 288 264 262 260 262 266 247 249 229 222 217 224 217 222 214 197 202 205 203 199 202 201 197 200 200 202 198 196 195 194 193 192 192 190 187 185 185 185 185 187 192 194 195 194 199 203 204 199 195 195 192 187 181 179 180 179 177
343 339 337 339 338 334 334 337 340 341 336 332 327 326 327 321 318 311 293 271 268 265 271 258 242 235 221 227 231 225 218 213 211 212 208 205 204 198 201 202 204 193 198 198 196 195 195 194 192 191 189 188 186 186 186 185 186 189 193 194 196 198 201 202 200 196 195 191 187 181 180 181 182 182
344 339 337 336 338 334 332 337 342 339 334 331 327 322 320 320 318 315 311 301 283 278 274 277 260 245 240 231 223 211 212 218 219 215 212 206 203 205 202 203 204 199 196 198 195 195 195 194 193 191 190 189 188 186 187 187 186 188 191 194 195 197 200 201 199 196 193 189 185 183 182 183 185 187
343 341 339 339 338 335 329 337 340 338 335 331 330 328 324 322 317 316 314 310 303 283 272 276 282 255 250 241 228 212 211 213 214 215 214 208 207 202 199 207 197 189 189 200 199 199 195 196 194 192 190 190 188 188 189 190 189 188 191 194 195 197 199 200 198 196 193 189 186 185 185 185 188 189
340 341 342 341 341 335 333 338 340 335 333 332 327 324 323 319 317 315 310 308 302 296 284 276 269 272 250 235 235 218 212 212 207 207 205 208 204 204 197 200 201 174 167 205 204 191 193 195 196 194 192 190 189 190 191 191 191 189 190 194 195 196 197 199 197 197 194 191 189 188 186 185 188 190
341 342 343 342 339 336 337 338 335 336 331 328 323 322 319 316 312 309 308 304 298 294 291 273 272 261 262 240 233 226 210 214 216 210 200 205 203 200 194 197 190 181 182 183 185 212 201 196 198 198 196 193 191 191 192 192 192 192 191 193 195 195 196 196 197 197 196 192 190 190 188 186 189 192
343 343 341 338 336 336 337 335 333 330 330 324 320 318 318 314 310 305 300 297 293 290 285 282 265 261 258 251 234 222 215 212 216 204 205 218 205 186 190 206 198 181 181 186 189 188 189 192 198 187 193 198 195 193 192 194 195 195 192 192 193 194 195 195 196 196 196 194 192 190 189 188 190 193
343 342 340 335 334 335 336 335 334 332 327 324 319 310 308 307 306 301 298 293 289 287 284 278 278 262 255 254 239 234 225 223 216 197 203 211 197 176 200 200 202 183 177 179 184 193 190 190 193 190 196 199 191 188 191 195 194 196 193 191 192 194 194 194 194 195 196 195 194 190 190 190 190 191
341 341 340 336 335 336 337 336 335 330 326 323 319 315 309 298 288 295 296 288 285 282 284 281 275 269 262 253 246 238 233 222 209 208 203 205 187 192 186 200 172 189 183 183 179 194 187 188 190 190 198 192 186 194 196 197 192 192 192 192 192 193 194 194 194 195 195 194 192 190 191 192 190 188
342 341 339 338 336 336 337 337 335 332 329 324 318 314 309 304 293 272 262 282 290 284 285 284 278 273 263 259 248 243 237 232 221 210 199 199 197 196 192 196 196 176 168 181 188 198 183 186 193 192 198 195 195 195 196 192 190 191 192 193 192 193 194 194 195 195 194 193 191 189 190 191 189 186
344 342 339 340 339 338 339 338 336 333 329 324 320 315 311 305 301 298 278 256 259 276 279 278 274 269 271 265 253 235 231 211 226 215 203 197 198 198 201 203 186 154 178 171 192 202 187 183 196 201 199 197 179 195 198 190 191 192 192 193 193 193 194 195 195 194 193 191 188 188 187 187 186 184
345 344 341 341 340 339 338 336 336 334 327 325 321 317 314 310 309 307 302 291 273 266 267 271 267 265 263 265 264 249 217 204 215 218 230 198 195 201 210 194 171 165 170 184 183 202 197 190 190 203 195 190 190 194 191 190 192 192 192 192 193 193 193 193 193 194 192 188 185 183 182 182 182 180
349 346 343 343 342 339 338 337 337 333 328 325 320 317 315 312 310 306 306 304 302 297 283 281 282 278 268 262 265 258 231 218 213 203 203 203 213 214 203 165 181 167 188 185 173 207 197 172 195 207 190 181 188 187 191 190 190 191 191 192 192 191 192 192 192 191 188 183 181 178 178 178 176 173
352 350 349 349 346 343 336 336 334 332 330 326 325 320 318 317 313 307 293 286 283 282 284 277 273 274 281 277 255 252 244 232 226 217 229 234 222 207 194 203 167 186 191 188 186 205 188 183 195 201 184 179 190 188 192 189 191 192 191 190 191 191 191 191 189 186 181 177 174 172 172 170 166 164
354 352 353 353 348 339 338 337 334 333 333 331 329 324 324 320 315 311 308 303 296 288 278 271 267 266 266 266 261 255 257 254 228 215 217 220 198 202 206 203 188 194 173 197 196 193 184 184 189 176 178 185 185 184 188 175 190 189 192 191 191 190 189 186 183 180 175 171 168 167 165 160 157 149
347 351 351 353 349 343 340 338 336 336 339 335 329 329 329 326 325 319 319 316 309 305 292 275 266 266 268 268 259 255 251 252 253 222 222 212 173 211 211 203 200 173 179 196 183 188 199 157 168 149 85 89 302 186 177 176 184 190 191 191 189 187 184 181 178 174 172 169 165 161 155 151 144 141
341 337 340 342 343 344 340 338 339 339 343 337 335 333 330 328 325 322 320 313 312 325 331 331 316 300 279 263 248 250 248 243 233 235 241 209 192 212 211 210 178 182 212 191 173 188 178 154 175 150 136 172 121 65 170 178 174 175 182 186 187 184 180 180 176 172 169 164 160 155 151 151 148 136
344 341 339 338 342 343 341 341 342 342 343 341 336 336 334 331 328 321 315 317 323 325 335 344 348 344 348 347 325 307 281 251 233 234 239 234 212 211 214 203 195 204 186 165 175 188 170 166 171 185 177 163 185 179 145 170 170 163 167 165 175 178 175 171 169 167 163 160 157 154 154 155 152 139
342 346 344 338 342 343 342 343 343 344 344 344 345 343 335 330 324 323 319 326 325 332 339 350 352 354 4 1 348 359 360 349 333 285 239 239 219 210 214 209 211 221 190 181 176 177 168 177 172 174 206 75 113 133 147 133 153 160 159 160 165 161 149 152 153 163 160 156 156 155 157 157 157 148
342 345 345 339 339 341 343 344 345 344 346 345 351 344 340 339 340 338 330 331 335 340 348 353 6 5 6 2 349 356 359 350 333 328 319 285 253 228 220 211 211 214 203 178 174 179 148 173 173 173 169 137 149 137 130 135 143 150 146 152 152 149 152 151 149 150 157 154 145 154 155 155 152 149
334 331 332 330 338 341 344 345 345 346 348 351 348 345 346 345 341 338 343 343 348 351 352 358 9 8 7 1 351 359 359 345 331 324 316 310 308 288 252 240 233 226 188 158 183 181 173 176 174 171 178 168 143 152 141 144 146 128 117 122 134 142 143 141 142 147 143 145 137 131 127 120 119 113
337 337 339 335 336 342 345 346 347 347 352 351 348 350 349 347 345 346 347 353 353 353 358 3 4 5 3 2 3 0 348 335 329 321 325 330 323 311 297 258 240 230 145 174 183 191 184 166 177 189 168 157 155 156 143 76 124 140 129 118 113 125 133 135 131 126 133 133 136 139 133 125 119 110
340 337 336 338 342 343 346 347 350 352 354 350 349 350 351 353 353 354 352 350 350 356 1 358 354 0 2 359 355 353 345 335 346 354 347 347 357 350 340 332 308 180 167 171 183 187 184 177 177 166 161 173 159 160 148 148 141 135 138 130 119 127 123 127 129 132 131 131 134 137 137 131 130 126
340 342 340 341 344 347 349 350 356 354 351 345 348 352 356 359 357 356 351 350 350 355 352 352 359 358 353 357 351 357 360 5 5 352 351 359 11 9 13 15 8 356 3 188 184 185 174 159 154 153 148 144 149 145 142 133 135 137 141 134 123 109 118 126 127 130 133 134 131 128 125 126 131 134
346 340 341 337 335 340 343 348 346 348 348 354 358 360 359 359 358 357 356 354 352 352 349 354 354 355 355 353 5 10 8 10 4 359 0 19 18 20 25 39 20 357 349 3 232 195 169 158 155 153 147 132 118 138 146 134 129 132 124 137 142 135 135 123 127 129 129 122 116 113 111 111 105 102
338 335 332 336 344 350 354 357 359 358 359 358 358 360 358 358 356 356 354 353 3 4 359 360 355 359 1 11 11 9 14 12 8 1 13 15 19 16 30 42 16 357 354 6 21 16 146 149 153 151 144 147 141 134 128 137 139 135 130 132 107 118 134 136 127 124 125 123 115 112 113 109 110 102
342 346 346 352 352 357 355 358 357 358 360 358 356 358 359 358 357 359 3 2 359 357 2 5 3 2 5 9 10 13 16 14 10 5 15 18 18 17 35 45 31 18 6 13 21 33 51 65 81 83 78 55 81 128 134 119 123 132 132 126 126 119 122 128 133 133 134 117 111 110 104 94 89 99
352 354 356 357 356 352 352 356 357 354 354 354 355 356 357 358 358 1 0 1 356 358 5 6 6 6 8 14 12 15 14 5 8 12 18 16 16 30 28 33 31 23 22 22 30 25 78 88 85 88 83 76 67 45 24 130 125 123 117 129 126 123 120 120 115 121 119 121 123 113 102 86 79 89
5 356 356 356 356 355 351 357 349 353 353 355 353 353 354 357 358 360 1 358 357 2 3 8 10 9 13 15 12 15 13 7 7 12 14 17 20 27 25 33 28 28 28 30 23 25 64 102 105 90 88 91 73 46 36 26 130 112 111 105 120 119 118 113 112 106 106 105 107 110 109 100 92 92
1 358 355 352 355 349 352 350 348 350 350 349 352 348 350 354 354 354 357 353 1 2 4 7 10 12 14 13 12 13 12 9 14 17 16 14 17 20 27 29 29 32 36 34 30 16 28 81 101 107 105 93 91 79 40 28 33 128 113 106 102 105 109 108 104 107 110 114 119 122 120 122 114 114
355 355 357 355 350 352 346 347 346 349 351 348 347 351 350 345 348 352 349 352 4 5 7 7 10 12 12 12 13 15 14 14 15 17 20 12 16 21 27 27 27 29 39 37 35 31 30 36 56 101 103 97 96 94 71 48 42 25 114 112 101 102 107 109 111 111 117 120 121 114 121 120 113 109
354 349 350 350 349 345 347 346 345 351 350 347 345 349 350 350 349 350 351 357 359 2 6 10 8 10 11 9 13 16 18 17 19 24 21 17 18 18 22 26 29 29 40 43 42 40 37 39 38 40 98 104 104 99 104 77 67 43 32 94 111 107 98 108 104 108 104 91 94 93 100 101 102 95
354 349 351 344 347 346 347 342 343 342 341 345 345 349 344 350 352 354 358 358 353 360 3 9 9 9 10 7 10 17 20 20 23 23 23 21 20 21 24 25 30 29 40 46 44 43 47 44 42 43 62 90 97 101 102 103 82 81 75 81 100 102 110 109 108 104 104 95 82 74 70 82 86 97
344 343 347 346 340 344 342 342 343 341 339 341 337 342 346 346 351 355 358 356 356 359 4 8 7 8 10 10 11 15 22 25 26 26 26 27 22 24 28 30 33 31 42 45 47 44 46 43 41 47 68 72 82 87 91 88 86 77 67 55 90 121 125 124 114 115 106 106 107 109 111 107 102 105
342 343 343 343 337 341 340 340 340 339 341 339 338 343 346 345 353 352 348 354 1 358 358 1 3 7 10 10 10 13 24 24 23 26 27 31 31 31 29 33 41 32 46 44 42 42 37 39 51 64 72 82 89 95 86 83 80 72 66 65 56 71 87 104 121 121 112 115 114 114 110 115 122 123
335 336 332 339 339 333 337 339 342 341 340 340 342 344 343 345 349 351 354 359 4 7 5 358 357 357 3 4 8 8 10 18 25 29 28 31 35 33 32 37 40 36 44 41 37 35 32 31 37 45 58 69 72 79 82 88 86 80 77 73 64 65 76 77 75 83 108 131 130 118 106 102 102 111
338 334 333 332 331 333 339 339 342 343 341 340 342 345 345 347 348 357 357 357 355 356 357 357 355 355 356 357 360 7 9 11 9 16 24 36 38 40 38 38 39 42 44 47 40 38 32 29 32 44 52 59 57 80 81 75 80 84 80 81 82 80 72 74 78 73 60 44 32 83 142 148 141 147
329 328 327 328 329 333 337 343 342 345 344 344 340 344 352 347 352 352 355 354 355 353 350 354 357 0 356 357 354 5 11 4 6 16 18 23 35 44 51 48 46 44 44 48 48 41 40 40 35 42 56 51 59 77 87 85 78 85 88 92 97 94 94 95 83 69 56 39 24 24 77 88 317 146
321 320 320 324 328 332 340 341 343 345 347 346 347 349 346 351 353 350 356 354 353 349 351 353 354 358 359 359 5 6 358 5 9 13 18 24 30 36 41 44 50 52 49 45 52 50 45 52 51 52 58 55 55 70 70 81 89 92 94 99 99 98 104 105 96 78 61 50 14 16 97 111 111 109